Location: Newark
(44.3248°N, 23.7839°E)
Time: 14:57:49
(UTC+00:00)

CAS-6 - Pass Details

Date: 28 April 2024
Orbit: 607 x 628 km, 97.8° (Epoch: 26 May)

Event Time Altitude Azimuth Distance (km) Brightness Sun altitude
Exits shadow 21:14:29 31° 292° (WNW) 1,093 ? -29.2°
Drops below altitude 10° 21:17:27 10° 329° (NNW) 1,983 ? -29.3°
Sets 21:19:48 0° 339° (NNW) 2,890 ? -29.5°
